Mora, MN

9:54 PM CDT on September 27, 2016 (GMT -0500)
Mora Municipal

Weather History for KJMR - August, 2013

Change the Weather History Date:

Monday, August 19, 2013

  Actual Average Record
Temperature  
Mean Temperature 75 °F -  
Max Temperature 86 °F 78 °F 99 °F (1976)
Min Temperature 64 °F 53 °F 37 °F (2004)
Cooling Degree Days 10    
Growing Degree Days 25 (Base 50)    
Moisture  
Dew Point 60 °F    
Average Humidity 65    
Maximum Humidity 78    
Minimum Humidity 48    
Precipitation  
Precipitation 0.00 in - - ()
Sea Level Pressure  
Sea Level Pressure 29.96 in    
Wind  
Wind Speed 3 mph (South)    
Max Wind Speed 14 mph    
Max Gust Speed 18 mph    
Visibility 10 miles    
Events Rain    
Averages and records for this station are not official NWS values.
T = Trace of Precipitation, MM = Missing Value Source: NWS Daily Summary

Daily Weather History Graph

Daily Weather History Graph

Search for Another Location

Airport or City:

Trip Planner

Search our weather history database for the weather conditions in past years. The results will help you decide how hot, cold, wet, or windy it might be!

Date:

Astronomy

Aug. 19, 2013 Rise Set
Actual Time 6:18 AM CDT 8:14 PM CDT
Civil Twilight 5:46 AM CDT 8:46 PM CDT
Nautical Twilight 5:06 AM CDT 9:25 PM CDT
Astronomical Twilight 4:23 AM CDT 10:08 PM CDT
Moon 7:05 PM CDT (8/19) 4:36 AM CDT (8/19)
Length of Visible Light 15h 00m
Length of Day
13h 56m
Waxing Gibbous, 97% of the Moon is Illuminated
Aug 19
Waxing Gibbous
Aug 20
Full
Aug 28
Last Quarter
Sep 5
New
Sep 12
First Quarter

Hourly Weather History & Observations

Time (CDT) Temp. Heat Index Dew Point Humidity Pressure Visibility Wind Dir Wind Speed Gust Speed Precip Events Conditions
12:14 AM 68.0 °F - 55.4 °F 64% 30.02 in 10.0 mi Calm Calm - N/A   Overcast
12:34 AM 68.0 °F - 55.4 °F 64% 30.01 in 10.0 mi SSW 5.8 mph - N/A   Overcast
12:54 AM 64.4 °F - 53.6 °F 68% 30.01 in 10.0 mi Calm Calm - N/A   Scattered Clouds
1:14 AM 64.4 °F - 55.4 °F 73% 30.00 in 10.0 mi SSW 6.9 mph - N/A   Clear
1:34 AM 64.4 °F - 55.4 °F 73% 30.00 in 10.0 mi SSW 8.1 mph - N/A   Clear
1:54 AM 64.4 °F - 55.4 °F 73% 29.99 in 10.0 mi SSW 5.8 mph - N/A   Clear
2:14 AM 66.2 °F - 55.4 °F 68% 29.99 in 10.0 mi Calm Calm - N/A   Clear
2:34 AM 64.4 °F - 55.4 °F 73% 29.99 in 10.0 mi Calm Calm - N/A   Clear
2:54 AM 68.0 °F - 55.4 °F 64% 30.00 in 10.0 mi Calm Calm - N/A   Mostly Cloudy
3:14 AM 68.0 °F - 55.4 °F 64% 30.00 in 10.0 mi Calm Calm - N/A   Overcast
3:34 AM 68.0 °F - 55.4 °F 64% 30.00 in 10.0 mi Calm Calm - N/A Rain Light Rain
3:54 AM 64.4 °F - 55.4 °F 73% 29.99 in 10.0 mi Calm Calm - N/A   Scattered Clouds
4:14 AM 64.4 °F - 55.4 °F 73% 29.98 in 10.0 mi Calm Calm - N/A   Clear
4:34 AM 64.4 °F - 55.4 °F 73% 29.97 in 10.0 mi Calm Calm - N/A   Clear
4:54 AM 64.4 °F - 55.4 °F 73% 29.97 in 10.0 mi Calm Calm - N/A   Clear
5:14 AM 64.4 °F - 55.4 °F 73% 29.95 in 10.0 mi Calm Calm - N/A   Clear
5:34 AM 64.4 °F - 57.2 °F 77% 29.95 in 10.0 mi Calm Calm - N/A   Scattered Clouds
5:54 AM 64.4 °F - 57.2 °F 77% 29.95 in 10.0 mi Calm Calm - N/A   Clear
6:14 AM 64.4 °F - 57.2 °F 77% 29.95 in 10.0 mi Calm Calm - N/A   Clear
6:34 AM 64.4 °F - 57.2 °F 77% 29.96 in 10.0 mi Calm Calm - N/A   Clear
6:54 AM 64.4 °F - 57.2 °F 77% 29.96 in 10.0 mi Calm Calm - N/A   Clear
7:14 AM 64.4 °F - 57.2 °F 77% 29.96 in 10.0 mi Calm Calm - N/A   Clear
7:34 AM 64.4 °F - 57.2 °F 77% 29.97 in 10.0 mi Calm Calm - N/A   Clear
7:54 AM 64.4 °F - 57.2 °F 77% 29.97 in 10.0 mi Calm Calm - N/A   Clear
8:14 AM 64.4 °F - 57.2 °F 77% 29.97 in 10.0 mi Calm Calm - N/A Rain Light Rain
8:35 AM 64.4 °F - 57.2 °F 77% 29.97 in 10.0 mi Calm Calm - N/A   Clear
8:54 AM 66.2 °F - 57.2 °F 73% 29.98 in 10.0 mi Calm Calm - N/A   Clear
9:14 AM 68.0 °F - 59.0 °F 73% 29.98 in 10.0 mi Calm Calm - N/A   Clear
9:34 AM 69.8 °F - 60.8 °F 73% 29.99 in 10.0 mi Calm Calm - N/A   Clear
9:54 AM 69.8 °F - 59.0 °F 68% 29.99 in 10.0 mi Calm Calm - N/A   Clear
10:14 AM 73.4 °F - 60.8 °F 65% 29.99 in 10.0 mi Calm Calm - N/A   Clear
10:34 AM 73.4 °F - 59.0 °F 61% 29.98 in 10.0 mi Calm Calm - N/A   Clear
10:54 AM 73.4 °F - 59.0 °F 61% 29.99 in 10.0 mi SSW 8.1 mph - N/A   Clear
11:14 AM 75.2 °F - 60.8 °F 61% 29.98 in 10.0 mi SSW 6.9 mph - N/A   Clear
11:34 AM 73.4 °F - 60.8 °F 65% 29.98 in 10.0 mi South 4.6 mph - N/A   Clear
11:54 AM 75.2 °F - 60.8 °F 61% 29.98 in 10.0 mi South 5.8 mph - N/A   Clear
12:14 PM 78.8 °F - 60.8 °F 54% 29.98 in 10.0 mi SSW 10.4 mph - N/A   Scattered Clouds
12:34 PM 78.8 °F - 60.8 °F 54% 29.97 in 10.0 mi South 9.2 mph - N/A   Clear
12:54 PM 77.0 °F - 60.8 °F 57% 29.97 in 10.0 mi SSW 4.6 mph - N/A   Scattered Clouds
1:14 PM 78.8 °F - 60.8 °F 54% 29.96 in 10.0 mi SSW 6.9 mph - N/A   Scattered Clouds
1:34 PM 78.8 °F - 62.6 °F 57% 29.96 in 10.0 mi SSW 11.5 mph 16.1 mph N/A   Clear
1:54 PM 80.6 °F 81.8 °F 62.6 °F 54% 29.95 in 10.0 mi South 10.4 mph - N/A   Clear
2:14 PM 82.4 °F 83.9 °F 64.4 °F 54% 29.95 in 10.0 mi South 10.4 mph 16.1 mph N/A   Clear
2:34 PM 86.0 °F 87.3 °F 64.4 °F 48% 29.94 in 10.0 mi South 6.9 mph - N/A   Clear
2:54 PM 86.0 °F 87.3 °F 64.4 °F 48% 29.94 in 10.0 mi SSW 10.4 mph - N/A   Clear
3:14 PM 84.2 °F 85.6 °F 64.4 °F 51% 29.94 in 10.0 mi SSW 13.8 mph 18.4 mph N/A   Scattered Clouds
3:34 PM 86.0 °F 87.3 °F 64.4 °F 48% 29.94 in 10.0 mi South 9.2 mph 18.4 mph N/A   Mostly Cloudy
3:54 PM 86.0 °F 87.3 °F 64.4 °F 48% 29.93 in 10.0 mi SSW 12.7 mph 16.1 mph N/A   Mostly Cloudy
4:14 PM 86.0 °F 87.3 °F 64.4 °F 48% 29.93 in 10.0 mi South 11.5 mph - N/A   Mostly Cloudy
4:34 PM 86.0 °F 87.3 °F 64.4 °F 48% 29.92 in 10.0 mi South 8.1 mph 17.3 mph N/A   Mostly Cloudy
4:54 PM 86.0 °F 87.3 °F 64.4 °F 48% 29.92 in 10.0 mi South 9.2 mph - N/A   Scattered Clouds
5:14 PM 86.0 °F 87.3 °F 64.4 °F 48% 29.92 in 10.0 mi SSW 10.4 mph - N/A   Scattered Clouds
5:34 PM 86.0 °F 87.3 °F 64.4 °F 48% 29.91 in 10.0 mi SSW 11.5 mph - N/A   Scattered Clouds
5:54 PM 82.4 °F 83.9 °F 64.4 °F 54% 29.91 in 10.0 mi SSW 9.2 mph - N/A   Scattered Clouds
6:14 PM 82.4 °F 83.9 °F 64.4 °F 54% 29.91 in 10.0 mi South 11.5 mph - N/A   Scattered Clouds
6:34 PM 82.4 °F 83.9 °F 64.4 °F 54% 29.91 in 10.0 mi South 9.2 mph - N/A   Clear
6:54 PM 80.6 °F 81.8 °F 62.6 °F 54% 29.91 in 10.0 mi South 9.2 mph - N/A   Clear
7:14 PM 78.8 °F - 62.6 °F 57% 29.91 in 10.0 mi South 5.8 mph - N/A   Scattered Clouds
7:34 PM 78.8 °F - 62.6 °F 57% 29.91 in 10.0 mi South 5.8 mph - N/A   Mostly Cloudy
7:54 PM 77.0 °F - 64.4 °F 65% 29.91 in 10.0 mi South 5.8 mph - N/A   Scattered Clouds
8:14 PM 77.0 °F - 62.6 °F 61% 29.91 in 10.0 mi South 5.8 mph - N/A   Scattered Clouds
8:34 PM 75.2 °F - 62.6 °F 65% 29.91 in 10.0 mi South 5.8 mph - N/A   Scattered Clouds
8:54 PM 75.2 °F - 64.4 °F 69% 29.92 in 10.0 mi South 4.6 mph - N/A   Clear
9:14 PM 75.2 °F - 64.4 °F 69% 29.92 in 10.0 mi SSW 5.8 mph - N/A   Scattered Clouds
9:34 PM 75.2 °F - 64.4 °F 69% 29.93 in 10.0 mi South 4.6 mph - N/A   Scattered Clouds
9:54 PM 73.4 °F - 62.6 °F 69% 29.93 in 10.0 mi South 4.6 mph - N/A   Scattered Clouds
10:14 PM 73.4 °F - 62.6 °F 69% 29.93 in 10.0 mi South 3.5 mph - N/A   Mostly Cloudy
10:34 PM 73.4 °F - 64.4 °F 73% 29.93 in 10.0 mi Calm Calm - N/A   Mostly Cloudy
10:54 PM 71.6 °F - 64.4 °F 78% 29.92 in 10.0 mi Calm Calm - N/A   Scattered Clouds
11:14 PM 69.8 °F - 62.6 °F 78% 29.92 in 10.0 mi Calm Calm - N/A   Scattered Clouds
11:34 PM 71.6 °F - 64.4 °F 78% 29.92 in 10.0 mi SSE 3.5 mph - N/A   Scattered Clouds
11:54 PM 69.8 °F - 62.6 °F 78% 29.92 in 10.0 mi SSE 3.5 mph - N/A   Scattered Clouds